Probability
0 0 0 0 0 1 2 2 4 5 5 4 2 1 0 0 0 0 0 0 0 0 0 0 0 0 0 0 0 0 0 0 0 0 0 0 0 0 0 0 0 0 0
0 0 0 0 0 1 1 1 3 6 6 5 3 1 0 0 0 0 0 0 0 0 0 0 0 0 0 0 0 0 0 0 0 0 0 0 0 0 0 0 0 0 0
0 0 0 0 1 1 1 1 3 5 6 6 4 2 0 0 0 0 0 0 0 0 0 0 0 0 0 1 0 0 0 0 0 0 0 0 0 0 0 0 0 0 0
0 0 0 0 1 1 1 1 3 4 5 5 4 2 1 1 0 0 0 0 0 0 0 0 0 0 0 0 0 0 0 0 0 0 0 0 0 0 0 0 0 0 0
0 0 0 0 0 0 0 1 2 3 3 3 3 2 2 1 1 1 1 0 0 0 0 0 0 0 0 0 0 0 0 0 0 0 0 0 0 0 0 0 0 0 0
0 0 0 0 0 0 0 1 2 2 1 1 1 1 1 1 1 2 2 1 0 0 0 0 0 0 0 0 0 0 0 0 0 0 0 0 0 0 0 0 0 0 0
0 0 0 0 0 0 0 0 1 1 0 0 0 0 0 0 1 1 2 1 0 0 0 0 0 0 0 0 1 0 0 0 0 0 0 0 0 0 0 0 0 0 0
0 0 0 0 0 0 0 0 0 0 0 0 0 0 0 0 0 0 1 1 0 0 0 0 0 0 0 0 0 0 0 0 0 0 0 0 0 0 0 0 0 0 0
0 0 0 0 0 0 0 0 0 0 0 0 0 0 0 0 0 0 0 0 0 0 0 0 0 0 0 0 0 0 0 0 0 0 0 0 0 0 0 0 0 0 0
0 0 0 0 0 0 0 0 0 0 0 0 0 0 0 0 0 0 0 0 0 0 0 0 0 0 0 0 0 0 0 0 0 0 0 0 0 0 0 0 0 0 0
0 0 0 0 0 0 0 0 0 0 0 0 0 0 0 0 0 0 0 0 0 0 0 0 0 0 0 0 0 0 0 0 0 0 0 0 0 0 0 0 0 0 0
0 0 0 0 0 0 0 0 0 0 0 0 0 0 0 0 0 0 0 0 0 0 0 0 0 0 0 0 0 0 0 0 0 0 0 0 0 0 0 0 0 0 0
1 1 0 0 0 0 0 0 0 0 0 0 0 0 0 0 0 0 0 0 0 0 0 0 0 0 0 0 0 0 0 0 0 0 0 0 0 0 0 0 0 0 0
2 2 1 0 0 0 0 0 0 0 0 0 0 0 0 0 0 0 0 0 0 0 0 0 0 0 0 0 0 0 0 0 0 0 0 0 0 0 0 0 0 0 0
3 3 2 1 1 0 0 0 0 0 0 0 0 0 0 0 0 0 0 0 0 0 0 0 0 0 0 0 0 0 0 0 0 0 0 0 0 0 0 0 0 0 0
3 3 3 3 2 1 0 0 0 0 0 0 0 0 0 0 0 0 0 0 0 0 0 0 0 0 0 0 0 0 0 0 0 0 0 0 0 0 0 0 0 0 0
2 3 3 3 3 1 1 0 0 0 0 0 0 0 0 0 0 0 0 0 0 0 0 0 0 0 0 0 0 0 0 0 0 0 0 0 0 0 0 0 0 0 0
1 1 2 4 4 3 2 1 0 0 0 0 0 0 0 0 0 0 0 0 0 0 0 0 0 0 0 0 0 0 0 0 0 0 0 0 0 0 0 0 0 0 0
0 0 2 4 5 4 3 1 0 0 0 0 0 0 0 0 0 0 0 0 0 0 0 0 0 0 0 0 0 0 0 0 0 0 0 0 0 0 0 0 0 0 0
0 0 1 4 6 5 4 2 1 0 0 0 0 0 0 0 0 0 0 0 0 0 0 0 0 0 0 0 0 0 0 0 0 0 0 0 0 0 0 0 0 0 0
0 0 1 3 5 6 5 3 1 0 0 0 0 0 0 0 0 0 0 0 0 0 0 0 0 0 0 0 0 0 0 0 0 0 0 0 0 0 0 0 0 0 0
0 0 0 1 4 6 6 4 1 0 0 0 0 0 0 0 0 0 0 0 0 0 0 0 0 0 0 0 0 0 0 0 0 0 0 0 0 0 0 0 0 0 0
0 0 0 1 3 5 6 4 1 0 0 0 0 0 0 0 0 0 0 0 0 0 0 0 0 0 0 0 0 0 0 0 0 0 0 0 0 0 0 0 0 0 0
0 0 0 0 1 3 6 5 2 0 0 0 0 0 0 0 0 0 0 0 0 0 0 0 0 0 0 0 0 0 0 0 0 0 0 0 0 0 0 1 0 0 0
0 0 0 0 0 2 5 5 3 1 0 0 0 0 0 0 0 0 0 0 0 0 0 0 0 0 0 0 0 0 0 0 0 0 0 0 0 0 0 0 0 0 0
0 0 0 0 0 1 4 5 3 1 0 0 0 0 0 0 0 0 0 0 0 0 0 0 0 0 0 0 0 0 0 0 0 0 0 0 0 0 0 0 0 0 0
Wind_Speed
1 2 2 3 5 6 7 7 6 7 7 7 8 8 8 8 8 8 8 8 8 8 8 8 8 8 9 9 9 9 9 9 9 10 10 10 10 10 10 10 9 6 10
2 2 2 3 5 6 7 7 7 7 7 7 8 8 8 8 7 7 7 7 7 7 7 8 8 8 8 8 8 8 8 8 9 9 9 9 9 9 9 9 8 6 9
2 2 2 3 5 6 7 7 7 7 7 7 7 7 7 7 7 7 7 7 7 7 7 7 7 8 8 8 8 8 8 8 8 8 8 5 5 8 8 8 8 8 8
3 3 2 3 5 6 6 7 7 6 6 6 7 7 7 6 6 7 7 7 7 7 7 8 7 7 8 8 8 7 7 8 8 7 4 3 3 6 7 7 7 7 7
3 2 2 3 5 6 6 6 6 6 6 6 6 6 6 6 6 7 7 6 7 7 7 8 8 7 7 7 7 7 7 7 8 6 4 3 3 6 6 6 6 6 6
3 2 2 3 5 6 6 5 6 6 6 6 6 5 6 6 6 6 6 6 6 6 7 7 7 7 7 7 7 7 7 7 6 4 3 3 2 5 5 6 6 5 5
3 2 2 3 4 5 5 5 5 5 5 5 5 5 5 6 6 6 6 6 6 6 6 6 6 7 7 6 6 7 7 7 4 3 2 2 2 4 4 4 4 4 4
3 2 2 2 3 4 4 4 4 5 5 5 4 5 5 5 6 5 6 5 6 6 5 6 6 6 7 6 6 6 7 6 4 3 2 1 2 3 3 3 3 4 4
3 3 2 2 2 3 4 4 4 4 4 4 4 4 5 5 5 6 5 5 6 6 6 5 5 5 5 6 6 6 6 6 3 2 1 1 1 2 2 2 2 2 3
3 2 2 2 2 2 2 3 4 4 4 4 5 5 5 5 5 5 5 5 5 6 6 5 5 5 5 5 5 5 5 4 2 2 1 1 2 1 1 1 1 1 1
2 2 2 1 1 1 1 2 2 3 3 4 4 5 4 3 3 3 5 5 6 6 6 6 6 6 5 5 5 5 4 1 2 1 1 2 3 2 1 1 1 1 1
0 1 1 1 1 1 1 2 1 2 2 2 2 3 2 2 3 4 5 5 6 6 6 6 7 6 5 3 4 4 1 1 1 1 1 3 3 2 2 2 2 1 1
0 1 1 1 1 1 1 1 1 1 1 2 2 2 2 3 3 3 2 3 3 5 4 5 5 3 3 2 2 2 1 1 1 1 2 4 3 3 3 3 3 2 2
1 1 1 1 1 1 1 1 1 1 1 1 1 2 2 2 2 2 2 2 2 2 2 2 2 3 3 2 2 2 2 1 1 1 2 4 4 4 3 4 4 4 3
1 2 1 1 1 0 0 1 1 1 1 1 2 2 3 2 2 2 1 1 2 1 2 2 2 2 2 2 2 1 1 1 1 1 2 4 4 4 4 4 4 4 4
2 2 2 1 1 1 0 1 1 1 1 1 2 2 2 2 2 2 1 1 1 1 1 1 1 1 1 1 2 1 1 1 1 1 1 2 4 4 4 4 4 5 5
2 2 1 1 1 1 1 1 1 1 1 1 1 2 2 2 2 2 2 1 1 1 1 1 1 1 1 1 2 1 1 1 1 1 2 1 2 4 5 4 5 5 5
1 1 1 1 1 1 1 1 1 1 1 1 1 1 2 2 2 2 2 1 1 1 1 1 1 1 1 1 1 1 1 1 1 1 1 2 1 2 3 5 5 5 5
1 1 1 1 1 1 2 1 1 1 1 1 1 1 2 2 2 2 2 1 1 1 1 0 1 1 1 1 1 1 1 1 1 1 1 1 2 2 2 4 5 5 6
2 2 2 1 1 1 1 0 1 1 1 1 1 1 2 2 2 2 2 2 2 1 0 0 0 1 0 1 1 2 1 1 1 1 1 1 2 2 2 3 2 3 5
3 2 2 2 2 1 0 1 1 1 1 0 0 0 1 1 2 2 2 2 2 1 1 1 0 0 1 1 1 2 2 1 0 0 0 1 2 2 2 3 2 2 3
1 2 2 1 1 1 1 1 1 1 1 1 0 0 0 1 1 1 2 2 2 1 1 1 1 0 1 0 1 0 2 2 2 1 1 1 1 1 2 2 2 2 3
2 2 2 2 1 1 1 0 1 1 1 0 0 0 0 0 0 1 2 2 2 2 2 2 2 2 1 1 0 1 1 2 3 2 1 1 1 1 2 2 2 2 3
3 2 2 1 1 1 0 0 2 1 1 1 1 1 1 1 1 1 1 2 2 2 2 2 2 2 2 2 1 0 1 2 1 2 2 1 2 2 2 2 2 2 2
3 2 2 1 1 1 1 0 1 0 0 0 0 0 0 1 1 1 1 1 2 2 2 2 2 2 2 2 2 1 1 0 1 1 3 3 3 2 2 2 2 2 2
3 3 2 1 1 1 1 0 0 0 0 1 0 1 1 1 1 1 1 1 2 2 2 2 2 2 3 2 2 2 2 2 2 2 3 3 3 3 3 2 2 2 2
Wind_Direction
249 246 225 135 121 116 113 111 105 99 98 101 100 100 97 95 94 93 91 90 93 91 90 88 85 85 86 84 82 79 75 73 73 71 72 74 74 77 77 74 69 65 74
186 193 190 131 121 115 112 106 104 102 98 96 97 96 96 94 92 91 89 89 89 90 88 89 85 83 84 85 86 83 78 75 71 66 65 67 71 77 79 77 74 74 76
132 162 161 130 118 111 112 109 105 102 101 98 93 90 92 94 90 90 90 87 88 88 89 86 85 84 84 86 87 85 80 78 73 66 59 49 63 78 81 80 77 74 74
129 143 151 127 115 111 111 111 110 105 101 101 98 92 91 95 96 93 91 90 88 87 87 84 85 86 85 86 85 85 83 79 74 66 54 41 48 75 82 82 78 75 75
118 116 134 122 119 117 112 115 113 105 100 96 95 93 92 87 94 97 92 91 91 88 85 83 81 83 84 84 85 85 84 81 73 65 53 38 40 67 74 77 76 76 75
109 103 113 111 120 120 114 113 118 108 100 94 90 86 82 81 84 96 94 90 89 88 83 81 80 77 81 84 84 83 82 80 70 66 53 36 37 66 70 74 77 76 76
110 97 107 101 109 114 117 114 110 111 103 94 87 81 78 79 78 80 89 89 85 84 86 79 78 78 77 81 83 82 78 74 70 66 53 34 48 64 69 68 70 72 79
109 94 90 91 94 102 106 107 101 103 104 98 88 79 73 75 74 74 77 78 81 81 84 82 75 83 79 76 79 79 74 68 66 58 44 33 57 70 75 69 66 68 72
84 87 76 61 68 88 90 87 87 90 91 91 83 74 66 67 68 65 64 71 73 72 76 77 74 80 83 75 72 78 74 63 60 43 25 20 45 63 82 76 69 72 73
65 72 74 58 52 58 74 77 76 80 81 76 72 67 62 63 63 63 53 61 71 67 67 68 66 68 69 73 66 65 72 64 53 33 4 355 19 27 41 83 67 59 70
48 40 53 57 51 54 69 72 71 73 76 75 69 66 64 61 60 61 54 58 67 65 60 61 58 59 56 57 55 52 60 55 46 19 345 351 357 356 353 351 9 15 9
357 359 18 48 54 56 68 74 67 65 74 76 68 66 67 70 65 64 61 58 55 57 57 57 55 53 48 38 39 39 39 39 48 3 340 348 348 351 350 338 336 329 314
298 4 352 352 17 83 81 84 77 79 81 83 79 75 82 79 71 64 63 51 46 47 48 47 47 38 38 36 26 20 27 30 19 351 343 350 344 343 350 343 329 319 303
0 319 336 360 360 44 80 117 116 107 112 113 112 103 100 93 83 77 71 60 54 48 53 46 43 32 31 34 33 22 20 25 7 353 339 351 353 347 342 342 338 325 311
325 310 319 351 344 334 136 141 138 137 131 132 126 116 111 113 109 98 88 81 73 63 58 51 40 32 25 20 18 25 14 3 354 353 336 350 357 354 350 340 338 330 320
301 300 316 299 308 310 207 175 173 158 142 128 129 134 128 124 122 119 106 95 79 73 65 62 48 44 15 10 3 0 339 342 350 348 340 343 354 355 352 344 340 334 329
279 296 297 254 287 254 238 219 170 159 146 146 145 141 134 128 136 133 129 114 81 64 69 54 41 46 32 18 353 344 334 339 346 340 341 336 336 347 351 352 346 336 326
292 297 284 282 263 246 237 225 194 165 155 156 149 146 145 144 144 139 135 134 112 92 77 72 51 32 17 359 335 325 318 329 337 330 345 340 343 353 351 355 347 339 335
319 303 297 278 228 244 236 219 195 165 155 145 139 154 158 156 153 148 151 151 133 121 120 99 34 35 348 334 317 314 306 296 303 326 331 337 342 350 347 349 350 345 339
357 359 350 344 330 291 245 177 170 141 150 130 152 169 157 165 163 157 157 151 142 135 121 82 34 13 317 298 323 318 299 279 283 276 320 340 346 354 348 346 345 340 343
13 7 357 360 357 18 89 209 218 218 209 185 184 101 145 157 166 161 157 152 151 166 188 184 152 0 345 341 29 333 314 276 298 266 340 346 352 348 349 348 345 343 334
340 333 336 332 345 330 285 238 231 217 205 197 153 98 134 125 157 170 164 167 173 176 178 175 141 346 313 23 100 37 328 323 327 306 336 332 331 338 341 339 336 337 332
314 304 309 313 324 304 318 11 41 54 48 66 306 264 304 277 172 174 170 169 181 180 196 202 191 180 215 251 136 152 178 252 313 313 315 327 324 324 317 319 324 319 318
294 301 309 309 321 324 316 162 149 166 209 252 245 231 236 204 205 196 184 178 183 194 205 214 198 207 191 202 238 266 205 178 196 304 310 314 314 305 307 322 317 312 310
318 323 313 336 348 349 335 213 181 192 281 346 6 198 234 230 220 218 202 186 189 201 209 215 204 210 206 194 193 192 199 221 194 211 280 305 314 296 298 301 300 304 308
349 351 348 355 347 345 347 4 179 201 128 112 320 229 252 275 259 246 220 208 212 209 210 219 212 214 218 205 204 199 189 188 202 203 240 275 288 293 296 290 284 286 302